Location: *
(39.6167°S, 171.5333°W)
Time: 05:46:02
(UTC+00:00)

CZ-3 R/B - Pass Details

Date: 13 May 2021
Orbit: 392 x 10212 km, 28.3° (Epoch: 16 June)

Event Time Altitude Azimuth Distance (km) Brightness Sun altitude
Rises 16:24:04 0° 300° (WNW) 10,354 6.3 -22.8°
Reaches altitude 10° 16:34:59 10° 306° (NW) 7,325 5.6 -20.7°
Maximum altitude 16:50:31 32° 360° (N) 2,595 3.8 -17.7°
Drops below altitude 10° 16:56:14 10° 62° (ENE) 2,669 5.0 -16.6°
Sets 16:58:10 0° 74° (ENE) 3,207 6.0 -16.3°
